Volver al catálogo

THOR ABLESTAR DEB

ActivoLEO
NORAD 120·DEBRIS·🇺🇸 United States

Lanzado Jun 29, 1961 desde Cape Canaveral Space Force Station

Loading…

Próximos Pases (próximas 24 horas)

TLE

ActualizadoSource: Space-Track

Época: Sep 7, 2026, 07:01 UTC

1 00120U 61015E   26250.29273134  .00000428  00000-0  18657-3 0  9996
2 00120  66.7038 216.9329 0116494 303.1128  55.8831 14.29670394360060

Sigue THOR ABLESTAR DEB en tiempo real con AllMySat

Download on the App Store